OPS 0856 DEB, 24676

Orbit data source: Space-Track

OPS 0856 DEB, 24676 is space debris in LEO originally from a launch on Fri, 19 Aug 1966 UTC launched from the Air Force Western Test Range (AFWTR). Debris objects in space refer to the collection of defunct objects orbiting the Earth. Examples of debris include non-operational satellites, rocket bodies, and fragments generated from explosions, collisions, or faulty payload assembly.

Loading next visibility...
Identifier
24676, 1966-077Q
Orbit
LEO
Country
Flag of USUS
Related business
Manufacturer
Unknown
Mission
Spacecraft
Bus & Motor
Unknown
Mass
Unknown
Launch date (UTC)
1966-08-19 (60 years ago)
Launch vehicle
Unknown
Launch site
Air Force Western Test Range (AFWTR)
Object type
Payload
Rocket body
Debris
Shape & HBR
Unknown shape, 0.1 m
Radar Cross Section
Medium (>0.1 m² and <1 m²)

Expand to show TLE details & history
Last TLE update: 4 days ago

TLE from 4 days ago
0 OPS 0856 DEB
1 24676U 66077Q   26244.85650425 -.00000314  00000-0 -91730-2 0  9996
2 24676  88.3900  42.0362 2070127 177.3850 184.0165  9.03269823562394
Epoch: 2026-09-01T20:33Z
TLE epoch observation values (Epoch: 2026-09-01T20:33:21.967Z)
Latitude
0.00001°
Longitude
112.67729°
Altitude
5,376.457 km
Speed
5.187 km/s
True Right ascension
02h 48m 08s
True Declination
0° 00' 00"
Sunlit
Object was in daylight at epoch
Visualization orbit readout
Latitude
Unknown
Longitude
Unknown
Altitude
Unknown
Speed
Unknown
Apparent Right ascension
Unknown
Apparent Declination
Unknown
Sunlit
N/A
Visualization observer readout
Local Sidereal Time
06:55:55
Azimuth
Unknown
Elevation
Unknown
Doppler factor
Unknown
Orbital elements
Apogee altitude
5,374.307 km
Perigee altitude
1,343.024 km
Semi-major axis
9,736.803 km
Eccentricity
0.20701
Inclination
88.39°
RAAN
42.0362°
Arg. of periapsis
177.385°
True anomaly
182.69772°
Mean anomaly
184.0165°
Eccentric anomaly
183.32796°
Mean motion
2.25901 °/min
Orbital period
159.36 mins
BSTAR
-0.009173
Loading maneuver chart data...
Computing Atmospheric mass density...
Loading historical data...
Loading historical data...
Loading historical data...
Loading historical data...
Loading historical data...
Loading historical data...
Loading historical data...

Documentation

Showing up to 5 results
|